Location: Helsinki
(60.1699°N, 24.9384°E)
Time: 19:45:48
(UTC+02:00)

Transit 2A Rocket - Pass Details

Date: 29 September 2023
Orbit: 593 x 903 km, 66.7° (Epoch: 28 November)

Event Time Altitude Azimuth Distance (km) Brightness Sun altitude
Rises 15:58:47 0° 220° (SW) 3,275 9.9 19.4°
Reaches altitude 10° 16:01:17 10° 219° (SW) 2,299 9.8 19.2°
Maximum altitude 16:06:30 71° 136° (SE) 758 5.3 18.7°
Drops below altitude 10° 16:11:15 10° 53° (NE) 2,109 6.8 18.3°
Sets 16:13:29 0° 52° (NE) 2,983 7.4 18.1°
